Year,Month,Day,Hour,Minute,Value (Times are PST for windgust in km/hr)
2015,11,16,00,00,6.40
2015,11,16,00,01,6.40
2015,11,16,00,02,4.80
2015,11,16,00,03,4.80
2015,11,16,00,04,4.80
2015,11,16,00,05,4.80
2015,11,16,00,06,3.20
2015,11,16,00,07,3.20
2015,11,16,00,08,4.80
2015,11,16,00,09,4.80
2015,11,16,00,10,3.20
2015,11,16,00,11,4.80
2015,11,16,00,12,3.20
2015,11,16,00,13,4.80
2015,11,16,00,14,4.80
2015,11,16,00,15,3.20
2015,11,16,00,16,4.80
2015,11,16,00,17,3.20
2015,11,16,00,18,4.80
2015,11,16,00,19,4.80
2015,11,16,00,20,4.80
2015,11,16,00,21,3.20
2015,11,16,00,22,3.20
2015,11,16,00,23,3.20
2015,11,16,00,24,3.20
2015,11,16,00,25,4.80
2015,11,16,00,26,4.80
2015,11,16,00,27,4.80
2015,11,16,00,28,3.20
2015,11,16,00,29,3.20
2015,11,16,00,30,3.20
2015,11,16,00,31,3.20
2015,11,16,00,32,1.60
2015,11,16,00,33,1.60
2015,11,16,00,34,1.60
2015,11,16,00,35,3.20
2015,11,16,00,36,1.60
2015,11,16,00,37,3.20
2015,11,16,00,38,3.20
2015,11,16,00,39,1.60
2015,11,16,00,40,1.60
2015,11,16,00,41,1.60
2015,11,16,00,43,1.60
2015,11,16,00,44,1.60
2015,11,16,00,45,1.60
2015,11,16,00,46,3.20
2015,11,16,00,47,3.20
2015,11,16,00,48,3.20
2015,11,16,00,49,3.20
2015,11,16,00,50,3.20
2015,11,16,00,51,1.60
2015,11,16,00,52,1.60
2015,11,16,00,54,1.60
2015,11,16,00,55,1.60
2015,11,16,00,56,1.60
2015,11,16,00,57,1.60
2015,11,16,00,59,1.60
2015,11,16,01,00,1.60
2015,11,16,01,01,3.20
2015,11,16,01,02,3.20
2015,11,16,01,03,4.80
2015,11,16,01,04,3.20
2015,11,16,01,05,3.20
2015,11,16,01,06,3.20
2015,11,16,01,07,1.60
2015,11,16,01,08,1.60
2015,11,16,01,09,3.20
2015,11,16,01,10,1.60
2015,11,16,01,11,1.60
2015,11,16,01,12,1.60
2015,11,16,01,13,1.60
2015,11,16,01,14,1.60
2015,11,16,01,15,1.60
2015,11,16,01,16,3.20
2015,11,16,01,17,3.20
2015,11,16,01,18,3.20
2015,11,16,01,19,3.20
2015,11,16,01,20,3.20
2015,11,16,01,21,3.20
2015,11,16,01,22,3.20
2015,11,16,01,23,3.20
2015,11,16,01,24,3.20
2015,11,16,01,25,3.20
2015,11,16,01,26,3.20
2015,11,16,01,27,3.20
2015,11,16,01,28,1.60
2015,11,16,01,29,1.60
2015,11,16,01,30,3.20
2015,11,16,01,31,3.20
2015,11,16,01,32,4.80
2015,11,16,01,33,3.20
2015,11,16,01,34,3.20
2015,11,16,01,35,3.20
2015,11,16,01,36,3.20
2015,11,16,01,37,3.20
2015,11,16,01,38,3.20
2015,11,16,01,39,1.60
2015,11,16,01,40,1.60
2015,11,16,01,41,1.60
2015,11,16,01,42,1.60
2015,11,16,01,43,1.60
2015,11,16,01,44,1.60
2015,11,16,01,45,1.60
2015,11,16,01,46,1.60
2015,11,16,01,47,1.60
2015,11,16,01,48,3.20
2015,11,16,01,49,3.20
2015,11,16,01,50,3.20
2015,11,16,01,51,3.20
2015,11,16,01,52,3.20
2015,11,16,01,53,3.20
2015,11,16,01,54,3.20
2015,11,16,01,55,4.80
2015,11,16,01,56,3.20
2015,11,16,01,57,3.20
2015,11,16,02,00,1.60
2015,11,16,02,01,1.60
2015,11,16,02,02,1.60
2015,11,16,02,03,1.60
2015,11,16,02,04,3.20
2015,11,16,02,05,3.20
2015,11,16,02,06,3.20
2015,11,16,02,07,4.80
2015,11,16,02,08,4.80
2015,11,16,02,09,1.60
2015,11,16,02,10,3.20
2015,11,16,02,11,3.20
2015,11,16,02,12,3.20
2015,11,16,02,13,3.20
2015,11,16,02,14,4.80
2015,11,16,02,15,3.20
2015,11,16,02,16,3.20
2015,11,16,02,17,3.20
2015,11,16,02,18,1.60
2015,11,16,02,19,1.60
2015,11,16,02,20,3.20
2015,11,16,02,21,1.60
2015,11,16,02,22,3.20
2015,11,16,02,23,3.20
2015,11,16,02,24,3.20
2015,11,16,02,25,4.80
2015,11,16,02,26,3.20
2015,11,16,02,27,1.60
2015,11,16,02,28,3.20
2015,11,16,02,29,3.20
2015,11,16,02,30,3.20
2015,11,16,02,31,4.80
2015,11,16,02,32,3.20
2015,11,16,02,33,3.20
2015,11,16,02,34,3.20
2015,11,16,02,35,3.20
2015,11,16,02,36,3.20
2015,11,16,02,37,3.20
2015,11,16,02,38,3.20
2015,11,16,02,39,3.20
2015,11,16,02,40,3.20
2015,11,16,02,41,3.20
2015,11,16,02,42,3.20
2015,11,16,02,43,1.60
2015,11,16,02,44,1.60
2015,11,16,02,45,1.60
2015,11,16,02,46,1.60
2015,11,16,02,47,1.60
2015,11,16,02,48,1.60
2015,11,16,02,49,1.60
2015,11,16,02,50,1.60
2015,11,16,02,51,3.20
2015,11,16,02,52,3.20
2015,11,16,02,53,3.20
2015,11,16,02,54,3.20
2015,11,16,02,55,3.20
2015,11,16,02,56,3.20
2015,11,16,02,57,3.20
2015,11,16,02,58,3.20
2015,11,16,02,59,1.60
2015,11,16,03,00,3.20
2015,11,16,03,01,3.20
2015,11,16,03,02,3.20
2015,11,16,03,04,3.20
2015,11,16,03,05,4.80
2015,11,16,03,06,4.80
2015,11,16,03,07,4.80
2015,11,16,03,08,3.20
2015,11,16,03,09,3.20
2015,11,16,03,10,3.20
2015,11,16,03,11,3.20
2015,11,16,03,12,1.60
2015,11,16,03,13,3.20
2015,11,16,03,14,1.60
2015,11,16,03,15,3.20
2015,11,16,03,16,1.60
2015,11,16,03,17,1.60
2015,11,16,03,20,1.60
2015,11,16,03,21,3.20
2015,11,16,03,22,1.60
2015,11,16,03,23,1.60
2015,11,16,03,24,3.20
2015,11,16,03,25,3.20
2015,11,16,03,26,3.20
2015,11,16,03,27,3.20
2015,11,16,03,28,3.20
2015,11,16,03,29,3.20
2015,11,16,03,30,3.20
2015,11,16,03,31,1.60
2015,11,16,03,32,1.60
2015,11,16,03,33,1.60
2015,11,16,03,34,1.60
2015,11,16,03,35,1.60
2015,11,16,03,36,3.20
2015,11,16,03,37,3.20
2015,11,16,03,38,3.20
2015,11,16,03,39,3.20
2015,11,16,03,40,1.60
2015,11,16,03,41,1.60
2015,11,16,03,42,3.20
2015,11,16,03,43,3.20
2015,11,16,03,44,1.60
2015,11,16,03,45,1.60
2015,11,16,03,46,3.20
2015,11,16,03,47,1.60
2015,11,16,03,48,1.60
2015,11,16,03,49,1.60
2015,11,16,03,50,3.20
2015,11,16,03,51,3.20
2015,11,16,03,52,1.60
2015,11,16,03,53,1.60
2015,11,16,03,54,3.20
2015,11,16,03,55,3.20
2015,11,16,03,56,4.80
2015,11,16,03,57,3.20
2015,11,16,03,58,3.20
2015,11,16,03,59,3.20
2015,11,16,04,00,1.60
2015,11,16,04,01,3.20
2015,11,16,04,02,3.20
2015,11,16,04,03,3.20
2015,11,16,04,04,3.20
2015,11,16,04,05,3.20
2015,11,16,04,06,3.20
2015,11,16,04,07,3.20
2015,11,16,04,08,3.20
2015,11,16,04,09,1.60
2015,11,16,04,10,3.20
2015,11,16,04,11,3.20
2015,11,16,04,12,3.20
2015,11,16,04,13,4.80
2015,11,16,04,14,4.80
2015,11,16,04,15,3.20
2015,11,16,04,16,3.20
2015,11,16,04,17,3.20
2015,11,16,04,18,3.20
2015,11,16,04,19,3.20
2015,11,16,04,20,3.20
2015,11,16,04,21,3.20
2015,11,16,04,22,3.20
2015,11,16,04,23,3.20
2015,11,16,04,24,3.20
2015,11,16,04,25,3.20
2015,11,16,04,26,3.20
2015,11,16,04,27,1.60
2015,11,16,04,28,1.60
2015,11,16,04,30,1.60
2015,11,16,04,31,1.60
2015,11,16,04,32,3.20
2015,11,16,04,33,3.20
2015,11,16,04,34,3.20
2015,11,16,04,35,1.60
2015,11,16,04,36,1.60
2015,11,16,04,37,1.60
2015,11,16,04,38,1.60
2015,11,16,04,39,1.60
2015,11,16,04,40,1.60
2015,11,16,04,41,1.60
2015,11,16,04,42,1.60
2015,11,16,04,43,1.60
2015,11,16,04,44,3.20
2015,11,16,04,45,1.60
2015,11,16,04,46,1.60
2015,11,16,04,47,1.60
2015,11,16,04,48,3.20
2015,11,16,04,49,1.60
2015,11,16,04,50,3.20
2015,11,16,04,51,3.20
2015,11,16,04,52,3.20
2015,11,16,04,53,3.20
2015,11,16,04,54,1.60
2015,11,16,04,55,1.60
2015,11,16,04,56,1.60
2015,11,16,04,57,1.60
2015,11,16,04,58,1.60
2015,11,16,04,59,1.60
2015,11,16,05,00,1.60
2015,11,16,05,01,1.60
2015,11,16,05,02,3.20
2015,11,16,05,03,3.20
2015,11,16,05,04,1.60
2015,11,16,05,05,1.60
2015,11,16,05,06,1.60
2015,11,16,05,07,1.60
2015,11,16,05,09,1.60
2015,11,16,05,10,3.20
2015,11,16,05,11,3.20
2015,11,16,05,12,3.20
2015,11,16,05,13,3.20
2015,11,16,05,14,3.20
2015,11,16,05,15,3.20
2015,11,16,05,16,3.20
2015,11,16,05,17,3.20
2015,11,16,05,18,3.20
2015,11,16,05,19,3.20
2015,11,16,05,20,1.60
2015,11,16,05,21,1.60
2015,11,16,05,22,1.60
2015,11,16,05,23,1.60
2015,11,16,05,24,1.60
2015,11,16,05,25,1.60
2015,11,16,05,29,1.60
2015,11,16,05,30,1.60
2015,11,16,05,31,1.60
2015,11,16,05,32,1.60
2015,11,16,05,33,1.60
2015,11,16,05,34,3.20
2015,11,16,05,35,1.60
2015,11,16,05,36,3.20
2015,11,16,05,37,3.20
2015,11,16,05,38,1.60
2015,11,16,05,39,1.60
2015,11,16,05,40,1.60
2015,11,16,05,41,1.60
2015,11,16,05,42,1.60
2015,11,16,05,45,1.60
2015,11,16,05,48,1.60
2015,11,16,05,49,1.60
2015,11,16,05,53,1.60
2015,11,16,05,54,1.60
2015,11,16,05,55,1.60
2015,11,16,05,56,1.60
2015,11,16,05,57,3.20
2015,11,16,05,58,1.60
2015,11,16,05,59,1.60
2015,11,16,06,00,1.60
2015,11,16,06,06,1.60
2015,11,16,06,07,1.60
2015,11,16,06,09,1.60
2015,11,16,06,11,3.20
2015,11,16,06,12,1.60
2015,11,16,06,13,1.60
2015,11,16,06,14,1.60
2015,11,16,06,15,3.20
2015,11,16,06,16,3.20
2015,11,16,06,17,3.20
2015,11,16,06,18,1.60
2015,11,16,06,19,1.60
2015,11,16,06,20,4.80
2015,11,16,06,21,1.60
2015,11,16,06,22,1.60
2015,11,16,06,23,1.60
2015,11,16,06,24,3.20
2015,11,16,06,25,1.60
2015,11,16,06,26,1.60
2015,11,16,06,27,1.60
2015,11,16,06,28,3.20
2015,11,16,06,29,1.60
2015,11,16,06,30,1.60
2015,11,16,06,31,1.60
2015,11,16,06,34,1.60
2015,11,16,06,35,3.20
2015,11,16,06,36,1.60
2015,11,16,06,37,1.60
2015,11,16,06,38,1.60
2015,11,16,06,39,1.60
2015,11,16,06,40,1.60
2015,11,16,06,41,1.60
2015,11,16,06,42,1.60
2015,11,16,06,43,1.60
2015,11,16,06,44,1.60
2015,11,16,06,45,3.20
2015,11,16,06,46,3.20
2015,11,16,06,47,1.60
2015,11,16,06,48,1.60
2015,11,16,06,49,3.20
2015,11,16,06,50,1.60
2015,11,16,06,51,3.20
2015,11,16,06,52,1.60
2015,11,16,06,53,1.60
2015,11,16,06,54,12.90
2015,11,16,06,55,6.40
2015,11,16,06,57,1.60
2015,11,16,06,58,4.80
2015,11,16,06,59,6.40
2015,11,16,07,00,3.20
2015,11,16,07,01,1.60
2015,11,16,07,02,1.60
2015,11,16,07,03,1.60
2015,11,16,07,04,3.20
2015,11,16,07,05,3.20
2015,11,16,07,06,3.20
2015,11,16,07,07,1.60
2015,11,16,07,08,1.60
2015,11,16,07,09,3.20
2015,11,16,07,10,3.20
2015,11,16,07,11,8.10
2015,11,16,07,12,4.80
2015,11,16,07,13,6.40
2015,11,16,07,14,4.80
2015,11,16,07,15,4.80
2015,11,16,07,16,3.20
2015,11,16,07,17,3.20
2015,11,16,07,18,3.20
2015,11,16,07,19,3.20
2015,11,16,07,20,6.40
2015,11,16,07,21,8.10
2015,11,16,07,22,1.60
2015,11,16,07,23,4.80
2015,11,16,07,24,3.20
2015,11,16,07,25,3.20
2015,11,16,07,26,1.60
2015,11,16,07,27,1.60
2015,11,16,07,28,3.20
2015,11,16,07,29,3.20
2015,11,16,07,30,3.20
2015,11,16,07,31,3.20
2015,11,16,07,32,1.60
2015,11,16,07,33,3.20
2015,11,16,07,34,1.60
2015,11,16,07,35,6.40
2015,11,16,07,36,4.80
2015,11,16,07,37,3.20
2015,11,16,07,38,3.20
2015,11,16,07,39,1.60
2015,11,16,07,40,3.20
2015,11,16,07,41,4.80
2015,11,16,07,42,9.60
2015,11,16,07,43,8.10
2015,11,16,07,44,4.80
2015,11,16,07,45,4.80
2015,11,16,07,46,6.40
2015,11,16,07,47,3.20
2015,11,16,07,48,3.20
2015,11,16,07,49,4.80
2015,11,16,07,50,4.80
2015,11,16,07,51,1.60
2015,11,16,07,52,1.60
2015,11,16,07,53,1.60
2015,11,16,07,54,3.20
2015,11,16,07,55,3.20
2015,11,16,07,56,1.60
2015,11,16,07,57,3.20
2015,11,16,07,58,1.60
2015,11,16,07,59,3.20
2015,11,16,08,00,1.60
2015,11,16,08,01,9.60
2015,11,16,08,02,6.40
2015,11,16,08,03,3.20
2015,11,16,08,04,3.20
2015,11,16,08,05,1.60
2015,11,16,08,06,1.60
2015,11,16,08,07,1.60
2015,11,16,08,08,1.60
2015,11,16,08,09,3.20
2015,11,16,08,10,3.20
2015,11,16,08,11,3.20
2015,11,16,08,12,4.80
2015,11,16,08,13,3.20
2015,11,16,08,14,4.80
2015,11,16,08,15,1.60
2015,11,16,08,16,3.20
2015,11,16,08,17,1.60
2015,11,16,08,18,4.80
2015,11,16,08,19,3.20
2015,11,16,08,20,4.80
2015,11,16,08,21,17.70
2015,11,16,08,22,4.80
2015,11,16,08,23,4.80
2015,11,16,08,24,4.80
2015,11,16,08,25,1.60
2015,11,16,08,26,8.10
2015,11,16,08,27,4.80
2015,11,16,08,28,8.10
2015,11,16,08,29,6.40
2015,11,16,08,30,6.40
2015,11,16,08,31,4.80
2015,11,16,08,32,4.80
2015,11,16,08,33,6.40
2015,11,16,08,34,4.80
2015,11,16,08,35,6.40
2015,11,16,08,36,1.60
2015,11,16,08,37,3.20
2015,11,16,08,38,6.40
2015,11,16,08,39,6.40
2015,11,16,08,40,6.40
2015,11,16,08,41,6.40
2015,11,16,08,42,14.50
2015,11,16,08,43,14.50
2015,11,16,08,44,17.70
2015,11,16,08,45,17.70
2015,11,16,08,46,11.30
2015,11,16,08,47,8.10
2015,11,16,08,48,12.90
2015,11,16,08,49,16.10
2015,11,16,08,50,6.40
2015,11,16,08,51,9.60
2015,11,16,08,52,17.70
2015,11,16,08,53,14.50
2015,11,16,08,54,8.10
2015,11,16,08,55,6.40
2015,11,16,08,56,9.60
2015,11,16,08,57,6.40
2015,11,16,08,58,3.20
2015,11,16,08,59,8.10
2015,11,16,09,00,24.20
2015,11,16,09,01,19.30
2015,11,16,09,02,9.60
2015,11,16,09,03,14.50
2015,11,16,09,04,14.50
2015,11,16,09,05,8.10
2015,11,16,09,06,14.50
2015,11,16,09,07,11.30
2015,11,16,09,08,6.40
2015,11,16,09,09,8.10
2015,11,16,09,10,14.50
2015,11,16,09,11,11.30
2015,11,16,09,12,3.20
2015,11,16,09,13,9.60
2015,11,16,09,14,14.50
2015,11,16,09,15,17.70
2015,11,16,09,16,12.90
2015,11,16,09,17,4.80
2015,11,16,09,18,4.80
2015,11,16,09,19,14.50
2015,11,16,09,20,14.50
2015,11,16,09,21,16.10
2015,11,16,09,22,9.60
2015,11,16,09,23,12.90
2015,11,16,09,24,8.10
2015,11,16,09,25,12.90
2015,11,16,09,26,3.20
2015,11,16,09,27,4.80
2015,11,16,09,28,4.80
2015,11,16,09,29,6.40
2015,11,16,09,30,3.20
2015,11,16,09,31,9.60
2015,11,16,09,32,6.40
2015,11,16,09,33,12.90
2015,11,16,09,34,9.60
2015,11,16,09,35,8.10
2015,11,16,09,36,11.30
2015,11,16,09,37,11.30
2015,11,16,09,38,6.40
2015,11,16,09,39,17.70
2015,11,16,09,40,6.40
2015,11,16,09,41,3.20
2015,11,16,09,42,6.40
2015,11,16,09,43,8.10
2015,11,16,09,44,6.40
2015,11,16,09,45,4.80
2015,11,16,09,46,14.50
2015,11,16,09,47,6.40
2015,11,16,09,48,3.20
2015,11,16,09,49,4.80
2015,11,16,09,50,6.40
2015,11,16,09,51,6.40
2015,11,16,09,52,12.90
2015,11,16,09,53,14.50
2015,11,16,09,54,6.40
2015,11,16,09,55,16.10
2015,11,16,09,56,12.90
2015,11,16,09,57,9.60
2015,11,16,09,58,16.10
2015,11,16,09,59,6.40
2015,11,16,10,00,11.30
2015,11,16,10,01,11.30
2015,11,16,10,02,4.80
2015,11,16,10,03,4.80
2015,11,16,10,04,11.30
2015,11,16,10,05,9.60
2015,11,16,10,06,6.40
2015,11,16,10,07,16.10
2015,11,16,10,08,11.30
2015,11,16,10,09,11.30
2015,11,16,10,10,19.30
2015,11,16,10,11,16.10
2015,11,16,10,12,8.10
2015,11,16,10,13,6.40
2015,11,16,10,14,6.40
2015,11,16,10,15,16.10
2015,11,16,10,16,9.60
2015,11,16,10,17,9.60
2015,11,16,10,18,35.40
2015,11,16,10,19,16.10
2015,11,16,10,20,6.40
2015,11,16,10,21,11.30
2015,11,16,10,22,27.40
2015,11,16,10,23,19.30
2015,11,16,10,24,6.40
2015,11,16,10,25,6.40
2015,11,16,10,26,25.70
2015,11,16,10,27,9.60
2015,11,16,10,28,11.30
2015,11,16,10,29,11.30
2015,11,16,10,30,12.90
2015,11,16,10,31,17.70
2015,11,16,10,32,8.10
2015,11,16,10,33,14.50
2015,11,16,10,34,20.90
2015,11,16,10,35,11.30
2015,11,16,10,36,12.90
2015,11,16,10,37,19.30
2015,11,16,10,38,20.90
2015,11,16,10,39,22.50
2015,11,16,10,40,22.50
2015,11,16,10,41,6.40
2015,11,16,10,42,16.10
2015,11,16,10,43,12.90
2015,11,16,10,44,22.50
2015,11,16,10,45,12.90
2015,11,16,10,46,8.10
2015,11,16,10,47,16.10
2015,11,16,10,48,16.10
2015,11,16,10,49,11.30
2015,11,16,10,50,12.90
2015,11,16,10,51,19.30
2015,11,16,10,52,25.70
2015,11,16,10,53,14.50
2015,11,16,10,54,19.30
2015,11,16,10,55,29.00
2015,11,16,10,56,6.40
2015,11,16,10,57,8.10
2015,11,16,10,58,16.10
2015,11,16,10,59,9.60
2015,11,16,11,00,29.00
2015,11,16,11,01,24.20
2015,11,16,11,02,37.00
2015,11,16,11,03,20.90
2015,11,16,11,04,22.50
2015,11,16,11,05,30.60
2015,11,16,11,06,12.90
2015,11,16,11,07,27.40
2015,11,16,11,08,17.70
2015,11,16,11,09,17.70
2015,11,16,11,10,16.10
2015,11,16,11,11,6.40
2015,11,16,11,12,17.70
2015,11,16,11,13,12.90
2015,11,16,11,14,41.80
2015,11,16,11,15,24.20
2015,11,16,11,16,14.50
2015,11,16,11,17,12.90
2015,11,16,11,18,30.60
2015,11,16,11,19,17.70
2015,11,16,11,20,33.80
2015,11,16,11,21,11.30
2015,11,16,11,22,32.20
2015,11,16,11,23,30.60
2015,11,16,11,24,32.20
2015,11,16,11,25,20.90
2015,11,16,11,26,22.50
2015,11,16,11,27,32.20
2015,11,16,11,28,25.70
2015,11,16,11,29,16.10
2015,11,16,11,30,20.90
2015,11,16,11,31,37.00
2015,11,16,11,32,12.90
2015,11,16,11,33,24.20
2015,11,16,11,34,17.70
2015,11,16,11,35,25.70
2015,11,16,11,36,25.70
2015,11,16,11,37,22.50
2015,11,16,11,38,37.00
2015,11,16,11,39,19.30
2015,11,16,11,40,12.90
2015,11,16,11,41,20.90
2015,11,16,11,42,17.70
2015,11,16,11,43,22.50
2015,11,16,11,44,22.50
2015,11,16,11,45,12.90
2015,11,16,11,46,11.30
2015,11,16,11,47,24.20
2015,11,16,11,48,20.90
2015,11,16,11,49,25.70
2015,11,16,11,50,27.40
2015,11,16,11,51,12.90
2015,11,16,11,52,12.90
2015,11,16,11,53,9.60
2015,11,16,11,54,14.50
2015,11,16,11,55,20.90
2015,11,16,11,56,12.90
2015,11,16,11,57,19.30
2015,11,16,11,58,17.70
2015,11,16,11,59,17.70
2015,11,16,12,00,6.40
2015,11,16,12,01,4.80
2015,11,16,12,02,17.70
2015,11,16,12,03,11.30
2015,11,16,12,04,17.70
2015,11,16,12,05,9.60
2015,11,16,12,06,24.20
2015,11,16,12,07,20.90
2015,11,16,12,08,8.10
2015,11,16,12,09,11.30
2015,11,16,12,10,14.50
2015,11,16,12,11,17.70
2015,11,16,12,12,8.10
2015,11,16,12,13,22.50
2015,11,16,12,14,14.50
2015,11,16,12,15,16.10
2015,11,16,12,16,12.90
2015,11,16,12,17,17.70
2015,11,16,12,18,33.80
2015,11,16,12,19,17.70
2015,11,16,12,20,24.20
2015,11,16,12,21,16.10
2015,11,16,12,22,6.40
2015,11,16,12,23,12.90
2015,11,16,12,24,11.30
2015,11,16,12,25,20.90
2015,11,16,12,26,16.10
2015,11,16,12,27,11.30
2015,11,16,12,28,27.40
2015,11,16,12,29,27.40
2015,11,16,12,30,27.40
2015,11,16,12,31,20.90
2015,11,16,12,32,17.70
2015,11,16,12,33,33.80
2015,11,16,12,34,40.20
2015,11,16,12,35,19.30
2015,11,16,12,36,12.90
2015,11,16,12,37,25.70
2015,11,16,12,38,25.70
2015,11,16,12,39,12.90
2015,11,16,12,40,49.90
2015,11,16,12,41,27.40
2015,11,16,12,42,14.50
2015,11,16,12,43,16.10
2015,11,16,12,44,19.30
2015,11,16,12,45,20.90
2015,11,16,12,46,20.90
2015,11,16,12,47,20.90
2015,11,16,12,48,12.90
2015,11,16,12,49,14.50
2015,11,16,12,50,19.30
2015,11,16,12,51,20.90
2015,11,16,12,52,46.70
2015,11,16,12,53,30.60
2015,11,16,12,54,17.70
2015,11,16,12,55,17.70
2015,11,16,12,56,17.70
2015,11,16,12,57,11.30
2015,11,16,12,58,19.30
2015,11,16,12,59,24.20
2015,11,16,13,00,37.00
2015,11,16,13,01,17.70
2015,11,16,13,02,25.70
2015,11,16,13,03,16.10
2015,11,16,13,04,37.00
2015,11,16,13,05,22.50
2015,11,16,13,06,25.70
2015,11,16,13,07,30.60
2015,11,16,13,08,17.70
2015,11,16,13,09,22.50
2015,11,16,13,10,12.90
2015,11,16,13,11,16.10
2015,11,16,13,12,27.40
2015,11,16,13,13,12.90
2015,11,16,13,14,20.90
2015,11,16,13,15,20.90
2015,11,16,13,16,27.40
2015,11,16,13,17,27.40
2015,11,16,13,18,19.30
2015,11,16,13,19,22.50
2015,11,16,13,20,22.50
2015,11,16,13,21,27.40
2015,11,16,13,22,20.90
2015,11,16,13,23,19.30
2015,11,16,13,24,33.80
2015,11,16,13,25,11.30
2015,11,16,13,26,20.90
2015,11,16,13,27,20.90
2015,11,16,13,28,17.70
2015,11,16,13,29,19.30
2015,11,16,13,30,24.20
2015,11,16,13,31,35.40
2015,11,16,13,32,30.60
2015,11,16,13,33,33.80
2015,11,16,13,34,22.50
2015,11,16,13,35,30.60
2015,11,16,13,36,37.00
2015,11,16,13,37,16.10
2015,11,16,13,38,14.50
2015,11,16,13,39,30.60
2015,11,16,13,40,22.50
2015,11,16,13,41,20.90
2015,11,16,13,42,29.00
2015,11,16,13,43,27.40
2015,11,16,13,44,19.30
2015,11,16,13,45,11.30
2015,11,16,13,46,14.50
2015,11,16,13,47,19.30
2015,11,16,13,48,19.30
2015,11,16,13,49,14.50
2015,11,16,13,50,22.50
2015,11,16,13,51,24.20
2015,11,16,13,52,33.80
2015,11,16,13,53,19.30
2015,11,16,13,54,17.70
2015,11,16,13,55,20.90
2015,11,16,13,56,27.40
2015,11,16,13,57,27.40
2015,11,16,13,58,24.20
2015,11,16,13,59,17.70
2015,11,16,14,00,14.50
2015,11,16,14,01,24.20
2015,11,16,14,02,17.70
2015,11,16,14,03,11.30
2015,11,16,14,04,14.50
2015,11,16,14,05,22.50
2015,11,16,14,06,19.30
2015,11,16,14,07,25.70
2015,11,16,14,08,35.40
2015,11,16,14,09,25.70
2015,11,16,14,10,27.40
2015,11,16,14,11,25.70
2015,11,16,14,12,27.40
2015,11,16,14,13,24.20
2015,11,16,14,14,24.20
2015,11,16,14,15,19.30
2015,11,16,14,16,6.40
2015,11,16,14,17,14.50
2015,11,16,14,18,20.90
2015,11,16,14,19,27.40
2015,11,16,14,20,12.90
2015,11,16,14,21,19.30
2015,11,16,14,22,22.50
2015,11,16,14,23,14.50
2015,11,16,14,24,14.50
2015,11,16,14,25,14.50
2015,11,16,14,26,14.50
2015,11,16,14,27,12.90
2015,11,16,14,28,22.50
2015,11,16,14,29,20.90
2015,11,16,14,30,12.90
2015,11,16,14,31,17.70
2015,11,16,14,32,14.50
2015,11,16,14,33,11.30
2015,11,16,14,34,16.10
2015,11,16,14,35,6.40
2015,11,16,14,36,12.90
2015,11,16,14,37,11.30
2015,11,16,14,38,17.70
2015,11,16,14,39,20.90
2015,11,16,14,40,20.90
2015,11,16,14,41,19.30
2015,11,16,14,42,32.20
2015,11,16,14,43,27.40
2015,11,16,14,44,8.10
2015,11,16,14,45,20.90
2015,11,16,14,46,20.90
2015,11,16,14,47,14.50
2015,11,16,14,48,20.90
2015,11,16,14,49,9.60
2015,11,16,14,50,12.90
2015,11,16,14,51,9.60
2015,11,16,14,52,11.30
2015,11,16,14,53,20.90
2015,11,16,14,54,27.40
2015,11,16,14,55,12.90
2015,11,16,14,56,9.60
2015,11,16,14,57,19.30
2015,11,16,14,58,16.10
2015,11,16,14,59,27.40
2015,11,16,15,00,24.20
2015,11,16,15,01,17.70
2015,11,16,15,02,16.10
2015,11,16,15,03,19.30
2015,11,16,15,04,33.80
2015,11,16,15,05,24.20
2015,11,16,15,06,19.30
2015,11,16,15,07,14.50
2015,11,16,15,08,9.60
2015,11,16,15,09,27.40
2015,11,16,15,10,20.90
2015,11,16,15,11,12.90
2015,11,16,15,12,17.70
2015,11,16,15,13,19.30
2015,11,16,15,14,22.50
2015,11,16,15,15,17.70
2015,11,16,15,16,11.30
2015,11,16,15,17,20.90
2015,11,16,15,18,22.50
2015,11,16,15,19,24.20
2015,11,16,15,20,19.30
2015,11,16,15,21,12.90
2015,11,16,15,22,25.70
2015,11,16,15,23,11.30
2015,11,16,15,24,17.70
2015,11,16,15,25,24.20
2015,11,16,15,26,14.50
2015,11,16,15,27,12.90
2015,11,16,15,28,11.30
2015,11,16,15,29,17.70
2015,11,16,15,30,29.00
2015,11,16,15,31,17.70
2015,11,16,15,32,16.10
2015,11,16,15,33,14.50
2015,11,16,15,34,20.90
2015,11,16,15,35,8.10
2015,11,16,15,36,9.60
2015,11,16,15,37,12.90
2015,11,16,15,38,9.60
2015,11,16,15,39,3.20
2015,11,16,15,40,17.70
2015,11,16,15,41,6.40
2015,11,16,15,42,12.90
2015,11,16,15,43,16.10
2015,11,16,15,44,12.90
2015,11,16,15,45,17.70
2015,11,16,15,46,30.60
2015,11,16,15,47,20.90
2015,11,16,15,48,6.40
2015,11,16,15,49,12.90
2015,11,16,15,50,16.10
2015,11,16,15,51,14.50
2015,11,16,15,52,11.30
2015,11,16,15,53,8.10
2015,11,16,15,54,6.40
2015,11,16,15,55,6.40
2015,11,16,15,56,11.30
2015,11,16,15,57,19.30
2015,11,16,15,58,9.60
2015,11,16,15,59,11.30
2015,11,16,16,00,8.10
2015,11,16,16,01,4.80
2015,11,16,16,02,16.10
2015,11,16,16,03,9.60
2015,11,16,16,04,4.80
2015,11,16,16,05,8.10
2015,11,16,16,06,6.40
2015,11,16,16,07,4.80
2015,11,16,16,08,11.30
2015,11,16,16,09,12.90
2015,11,16,16,10,9.60
2015,11,16,16,11,6.40
2015,11,16,16,12,14.50
2015,11,16,16,13,12.90
2015,11,16,16,14,4.80
2015,11,16,16,15,16.10
2015,11,16,16,16,16.10
2015,11,16,16,17,6.40
2015,11,16,16,18,3.20
2015,11,16,16,19,12.90
2015,11,16,16,20,12.90
2015,11,16,16,21,3.20
2015,11,16,16,22,3.20
2015,11,16,16,23,12.90
2015,11,16,16,24,9.60
2015,11,16,16,25,9.60
2015,11,16,16,26,8.10
2015,11,16,16,27,6.40
2015,11,16,16,28,12.90
2015,11,16,16,29,8.10
2015,11,16,16,30,6.40
2015,11,16,16,31,6.40
2015,11,16,16,32,6.40
2015,11,16,16,33,9.60
2015,11,16,16,34,4.80
2015,11,16,16,35,6.40
2015,11,16,16,36,8.10
2015,11,16,16,37,9.60
2015,11,16,16,38,4.80
2015,11,16,16,39,6.40
2015,11,16,16,40,8.10
2015,11,16,16,41,11.30
2015,11,16,16,42,14.50
2015,11,16,16,43,12.90
2015,11,16,16,44,3.20
2015,11,16,16,45,4.80
2015,11,16,16,46,6.40
2015,11,16,16,47,6.40
2015,11,16,16,48,4.80
2015,11,16,16,49,14.50
2015,11,16,16,50,8.10
2015,11,16,16,51,6.40
2015,11,16,16,52,6.40
2015,11,16,16,53,4.80
2015,11,16,16,54,4.80
2015,11,16,16,55,4.80
2015,11,16,16,56,6.40
2015,11,16,16,57,4.80
2015,11,16,16,58,4.80
2015,11,16,16,59,4.80
2015,11,16,17,00,8.10
2015,11,16,17,01,6.40
2015,11,16,17,02,8.10
2015,11,16,17,03,8.10
2015,11,16,17,04,11.30
2015,11,16,17,05,4.80
2015,11,16,17,06,8.10
2015,11,16,17,07,6.40
2015,11,16,17,08,16.10
2015,11,16,17,09,8.10
2015,11,16,17,10,3.20
2015,11,16,17,11,4.80
2015,11,16,17,12,9.60
2015,11,16,17,13,9.60
2015,11,16,17,14,4.80
2015,11,16,17,15,4.80
2015,11,16,17,16,17.70
2015,11,16,17,17,9.60
2015,11,16,17,18,4.80
2015,11,16,17,19,11.30
2015,11,16,17,20,1.60
2015,11,16,17,21,6.40
2015,11,16,17,22,6.40
2015,11,16,17,23,3.20
2015,11,16,17,24,4.80
2015,11,16,17,25,16.10
2015,11,16,17,26,14.50
2015,11,16,17,27,3.20
2015,11,16,17,28,6.40
2015,11,16,17,29,4.80
2015,11,16,17,30,11.30
2015,11,16,17,31,9.60
2015,11,16,17,32,9.60
2015,11,16,17,33,6.40
2015,11,16,17,34,3.20
2015,11,16,17,35,8.10
2015,11,16,17,36,11.30
2015,11,16,17,37,6.40
2015,11,16,17,38,4.80
2015,11,16,17,39,6.40
2015,11,16,17,40,4.80
2015,11,16,17,41,11.30
2015,11,16,17,42,11.30
2015,11,16,17,43,12.90
2015,11,16,17,44,4.80
2015,11,16,17,45,9.60
2015,11,16,17,46,11.30
2015,11,16,17,47,3.20
2015,11,16,17,48,3.20
2015,11,16,17,49,3.20
2015,11,16,17,50,1.60
2015,11,16,17,51,3.20
2015,11,16,17,52,4.80
2015,11,16,17,53,4.80
2015,11,16,17,54,4.80
2015,11,16,17,55,4.80
2015,11,16,17,56,1.60
2015,11,16,17,57,1.60
2015,11,16,17,58,4.80
2015,11,16,17,59,3.20
2015,11,16,18,00,3.20
2015,11,16,18,01,4.80
2015,11,16,18,02,1.60
2015,11,16,18,03,1.60
2015,11,16,18,04,6.40
2015,11,16,18,05,6.40
2015,11,16,18,06,4.80
2015,11,16,18,07,3.20
2015,11,16,18,08,12.90
2015,11,16,18,09,11.30
2015,11,16,18,10,3.20
2015,11,16,18,11,1.60
2015,11,16,18,12,3.20
2015,11,16,18,13,1.60
2015,11,16,18,14,1.60
2015,11,16,18,15,3.20
2015,11,16,18,16,1.60
2015,11,16,18,17,3.20
2015,11,16,18,18,6.40
2015,11,16,18,19,6.40